Погода в Усть-Калманке

Россия / Алтайский край     52°07′18″N   83°18′37″E
темп.,
°C
ветер,
м/с
пор.,
м/с
влажн.,
%
обл.,
%
осадки,
мм/ч
давл.,
гПа
погр.,
м
25 февраля, чт
чт2501:00−10з4995100 1.1 1017485
04:00−12зюз3694100 0.3 1018181
07:00−14з4795100 1.3 1019473
10:00−16з61183100 0.3 1023771
13:00−16зюз9167992 0.4 10241238
16:00−15юз12207588 0.0 10241788
19:00−16юз10208294 0.1 10251963
22:00−17юз91884100 0.1 10261761
26 февраля, пт
пт2601:00−19юз71592100 0.2 10281703
04:00−21юз101977100 0.1 10291461
07:00−22юз111880100 0.1 10331223
10:00−22юз111782100 0.1 10351191
13:00−20юз101777100 0.1 10361318
16:00−19зюз101675100 0.0 10361255
19:00−20зюз81580100 0.0 1038854
22:00−20зюз71683100 0.0 1039788
27 февраля, сб
сб2701:00−21зюз51486100 0.0 1040456
04:00−23зюз3791100 0.0 1040148
07:00−25ююз1192100 0.0 103920
10:00−22ююз1293100 0.0 1039145
13:00−18юз2585100 0.1 1039604
16:00−16зюз2388100 0.1 1038549
19:00−19с1198100 0.5 103920
22:00−21юв1199100 0.1 104020
28 февраля, вс
вс2801:00−22ююв1196100 0.2 104020
04:00−23ююв1289100 0.0 104020
07:00−21юв228172 0.0 103920
10:00−16юв228199 0.0 103870
13:00−8ююз497397 0.0 1036984
16:00−6ююз4117399 0.0 10341297
19:00−8ююв337999 0.0 103153
22:00−8юв4979100 0.1 1029231
1 марта, пн
пн101:00−7ююв31278100 0.1 1027487
04:00−5ююз51877100 0.0 10251116
07:00−3юз122174100 0.0 10241008
10:00−3юз112164100 0.0 1023975
13:00−2юз122170100 0.0 10221032
16:00−2юз122071100 0.0 1021960
19:00−3юз112077100 0.1 1022799
22:00−3юз112079100 0.1 1022709